ALAKES messages


fromtotime message
ALAKES EMAIL 03/24 21:22:48z Send another julian@wallowaavalanchecenter.org Low Voltage, AC Power off{aa
KB7DZR-10 ALAKES 03/23 15:34:06z Reply cmd wxinfo{YF}
ALAKES KB7DZR-10 03/23 15:33:33z Send another TEMP:22 WIND 202 AT 4 GUST 3 BARO 10110 RH 97% *{ad
ALAKES KB7DZR-10 03/23 15:33:04z Send another TEMP:84F VOLT:13.55 RX:45318 FCS:8544 CFG:1 PWD:0 DIGI:38309{ac
KB7DZR-10 ALAKES 03/23 15:32:48z Reply cmd info{YE}
ALAKES KB7DZR-10 03/19 17:14:03z Send another TEMP:85F VOLT:13.53 RX:62412 FCS:65459 CFG:1 PWD:0 DIGI:23060{ab
KB7DZR-10 ALAKES 03/19 17:13:57z Reply cmd info{GL}
ALAKES KB7DZR-10 01/26 14:59:22z Send another TXLEVEL 5{ei
KB7DZR-10 ALAKES 01/26 14:59:17z Reply cmd txl 5{LO}
ALAKES KB7DZR-10 01/26 14:58:01z Send another TEMP:79F VOLT:14.10 RX:45610 FCS:57490 CFG:1 PWD:0 DIGI:16037{eh
KB7DZR-10 ALAKES 01/26 14:57:57z Reply cmd info{LN}
ALAKES KB7DZR-10 01/26 14:57:37z Send another TXLEVEL 10{eg
KB7DZR-10 ALAKES 01/26 14:57:29z Reply cmd txl 10{LM}
ALAKES KB7DZR-10 01/26 14:53:58z Send another TXLEVEL 3{ef
KB7DZR-10 ALAKES 01/26 14:53:46z Reply cmd txl 3{LL}
ALAKES KB7DZR-10 01/26 14:53:26z Send another TXDELAY 15{ee
KB7DZR-10 ALAKES 01/26 14:53:21z Reply cmd txd 15{LK}
ALAKES KB7DZR-10 01/26 14:50:27z Send another TXDELAY 18{ed
KB7DZR-10 ALAKES 01/26 14:49:39z Reply cmd txd 18{LJ}
ALAKES KB7DZR-10 01/26 14:48:47z Send another TXLEVEL 4{ec
KB7DZR-10 ALAKES 01/26 14:48:41z Reply cmd txl 4{LI}
ALAKES KB7DZR-10 01/26 14:47:27z Send another TXLEVEL 3{eb
KB7DZR-10 ALAKES 01/26 14:47:14z Reply cmd txl 3{LH}
KB7DZR-10 ALAKES 01/26 14:46:31z Reply cmd txl 2{LG}
ALAKES KB7DZR-10 01/26 14:45:59z Send another TEMP:48 WIND 160 AT 35 GUST 41 BARO 10240 RH 36% *{dp
KB7DZR-10 ALAKES 01/26 14:45:44z Reply cmd wxinfo{LF}
ALAKES KB7DZR-10 01/26 14:45:19z Send another TXLEVEL 3{do
KB7DZR-10 ALAKES 01/26 14:44:50z Reply cmd txl 3{LE}
ALAKES KB7DZR-10 01/26 14:40:50z Send another TXLEVEL 4{dn
KB7DZR-10 ALAKES 01/26 14:40:38z Reply cmd txl 4{LD}
ALAKES KB7DZR-10 01/26 14:38:12z Send another TXLEVEL 5{dm
KB7DZR-10 ALAKES 01/26 14:37:45z Reply cmd txl 5{LC}
KB7DZR-10 ALAKES 01/26 13:53:38z Reply cmd txl 4{LB}
ALAKES KB7DZR-10 01/26 13:52:46z Send another TXLEVEL 4{dl
ALAKES KB7DZR-10 01/26 13:46:58z Send another TXLEVEL 3{dk
KB7DZR-10 ALAKES 01/26 13:46:45z Reply cmd txl 3{LA}
ALAKES KB7DZR-10 01/26 13:42:06z Send another TEMP:48 WIND 135 AT 20 GUST 36 BARO 10244 RH 37% *{dj
KB7DZR-10 ALAKES 01/26 13:41:59z Reply cmd wxinfo{KZ}
ALAKES KB7DZR-10 01/26 13:41:44z Send another TXDELAY 4{di
KB7DZR-10 ALAKES 01/26 13:41:40z Reply cmd txd 4{KY}
ALAKES KB7DZR-10 01/26 13:41:15z Send another TXDELAY 5{dh
KB7DZR-10 ALAKES 01/26 13:40:45z Reply cmd txd 5{KX}
ALAKES KB7DZR-10 01/26 13:38:50z Send another TXLEVEL 15{df
KB7DZR-10 ALAKES 01/26 13:38:46z Reply cmd txl 15{KW}
ALAKES KB7DZR-10 01/26 13:37:49z Send another TXLEVEL 8{de
KB7DZR-10 ALAKES 01/26 13:37:45z Reply cmd txl{KV}
ALAKES KB7DZR-10 01/26 13:36:59z Send another TXDELAY 15{dd
KB7DZR-10 ALAKES 01/26 13:36:56z Reply cmd txd{KU}
ALAKES KB7DZR-10 01/26 05:17:16z Send another TXLEVEL 8{dc
KB7DZR-10 ALAKES 01/26 05:17:05z Reply cmd txl 8{KT}
ALAKES KB7DZR-10 01/26 05:16:30z Send another TXLEVEL 7{db
KB7DZR-10 ALAKES 01/26 05:16:28z Reply cmd txl 7{KS}
ALAKES KB7DZR-10 01/26 05:09:38z Send another TXLEVEL 6{da
KB7DZR-10 ALAKES 01/26 05:09:31z Reply cmd txl 6{KR}
ALAKES KB7DZR-10 01/26 04:55:24z Send another TXDELAY 15{cp
KB7DZR-10 ALAKES 01/26 04:55:20z Reply cmd txd 15{KM}
ALAKES KB7DZR-10 01/26 04:52:12z Send another TXDELAY 16{co
KB7DZR-10 ALAKES 01/26 04:51:57z Reply cmd txd 16{KL}
ALAKES KB7DZR-10 01/25 15:34:57z Send another TEMP:83F VOLT:14.8 RX:31508 FCS:20757 CFG:1 PWD:0 DIGI:11154{cm
KB7DZR-10 ALAKES 01/25 15:34:48z Reply cmd info{JZ}
ALAKES KB7DZR-10 01/25 13:23:14z Send another TXLEVEL 6{cl
KB7DZR-10 ALAKES 01/25 13:23:10z Reply cmd txl 6{JY}
ALAKES KB7DZR-10 01/25 13:17:12z Send another TXLEVEL 5{ck
KB7DZR-10 ALAKES 01/25 13:17:08z Reply cmd txl 5{JX}
ALAKES KB7DZR-10 01/25 13:16:15z Send another TXLEVEL 4{cj
KB7DZR-10 ALAKES 01/25 13:16:11z Reply cmd txl 4{JW}
KB7DZR-10 ALAKES 01/25 13:15:40z Reply cmd txl 2{JV}
ALAKES KB7DZR-10 01/25 13:12:43z Send another TEMP:83F VOLT:14.19 RX:29983 FCS:17255 CFG:1 PWD:0 DIGI:10657{ch
KB7DZR-10 ALAKES 01/25 13:12:28z Reply cmd info{JU}
ALAKES KB7DZR-10 01/25 13:11:22z Send another TXLEVEL 3{cg
KB7DZR-10 ALAKES 01/25 13:11:15z Reply cmd txl {JT}
ALAKES KB7DZR-10 01/25 13:10:28z Send another TXLEVEL 3{cf
KB7DZR-10 ALAKES 01/25 13:09:47z Reply cmd txl 3{JS}
ALAKES KB7DZR-10 01/25 13:08:09z Send another TXLEVEL 5{ce
KB7DZR-10 ALAKES 01/25 13:08:01z Reply cmd txl 5{JR}
ALAKES KB7DZR-10 01/23 23:22:08z Send another TXLEVEL 5{cb
KB7DZR-10 ALAKES 01/23 23:22:03z Reply cmd txl 5{JO}
ALAKES KB7DZR-10 01/23 23:19:59z Send another TEMP:97F VOLT:14.43 RX:11395 FCS:28280 CFG:1 PWD:0 DIGI:3953{ca
KB7DZR-10 ALAKES 01/23 23:19:54z Reply cmd info{JN}
ALAKES KB7DZR-10 01/23 23:10:00z Send another TXLEVEL 4{bp
KB7DZR-10 ALAKES 01/23 23:09:05z Reply cmd txl 4{JM}
ALAKES KB7DZR-10 01/23 23:08:54z Send another TXDELAY 15{bo
KB7DZR-10 ALAKES 01/23 23:08:51z Reply cmd txd 15{JL}
ALAKES KB7DZR-10 01/23 23:07:29z Send another TXDELAY 18{bn
KB7DZR-10 ALAKES 01/23 23:07:25z Reply cmd txd 18{JK}
ALAKES KB7DZR-10 01/23 23:03:26z Send another TXLEVEL 5{bm
KB7DZR-10 ALAKES 01/23 23:03:14z Reply cmd txl 5{JJ}
ALAKES KB7DZR-10 01/23 23:03:10z Send another Invalid Command{bl
KB7DZR-10 ALAKES 01/23 23:02:52z Reply cmd txl5{JI}
ALAKES KB7DZR-10 01/23 23:01:54z Send another TXLEVEL 4{bk
KB7DZR-10 ALAKES 01/23 23:01:42z Reply cmd txl 4{JH}
ALAKES KB7DZR-10 01/23 22:47:52z Send another TXLEVEL 5{bj
KB7DZR-10 ALAKES 01/23 22:47:48z Reply cmd txl 5{JG}
ALAKES KB7DZR-10 01/23 22:44:09z Send another TEMP:96F VOLT:14.29 RX:10966 FCS:27225 CFG:1 PWD:0 DIGI:3802{bi
KB7DZR-10 ALAKES 01/23 22:43:56z Reply cmd info{JF}
ALAKES KB7DZR-10 01/23 22:42:39z Send another TXLEVEL 4{bh
KB7DZR-10 ALAKES 01/23 22:42:35z Reply cmd txl 4{JE}
ALAKES KB7DZR-10 01/23 19:31:01z Send another TXLEVEL 5{bg
KB7DZR-10 ALAKES 01/23 19:30:55z Reply cmd txl 5{JD}
ALAKES KB7DZR-10 01/23 19:25:36z Send another TXLEVEL 4{bf